Location: St. Louis
(38.6270°N, 90.1994°W)
Time: 12:53:27
(UTC-06:00)

Transit 2A Rocket - Pass Details

Date: 02 December 2021
Orbit: 584 x 918 km, 66.7° (Epoch: 22 January)

Event Time Altitude Azimuth Distance (km) Brightness Sun altitude
Rises 17:08:35 0° 329° (NNW) 3,550 8.5 -5.9°
Reaches altitude 10° 17:11:10 10° 328° (NNW) 2,588 7.9 -6.4°
Maximum altitude 17:17:12 74° 245° (WSW) 904 5.6 -7.5°
Drops below altitude 10° 17:22:47 10° 161° (SSE) 2,408 7.6 -8.5°
Sets 17:25:08 0° 159° (SSE) 3,287 8.3 -8.9°
